Regional Weather Roundup
Issued by NWS

Home | Current Version | Previous Version | Graphics & Text | Print | Product List | Glossary On
Versions: 1 2 3 4 5 6 7 8 9 10 11 12 13 14 15 16 17 18 19 20 21 22 23 24 25 26 27
000
ASUS45 KSLC 251210
RWRUT

UTAH REGIONAL WEATHER ROUNDUP
NATIONAL WEATHER SERVICE SALT LAKE CITY UT
600 AM MDT MON SEP 25 2017

UTZ001>011-023>025-251300-

NORTHERN UTAH

CITY           SKY/WX    TMP DP  RH WIND       PRES   REMARKS
BRIGHAM CITY   PTCLDY    41  38  88 CALM      30.13S
DUGWAY         CLEAR     35  33  92 E3        30.10S
6HR MIN TEMP:  34; 6HR MAX TEMP:  41;

HILL AFB       CLOUDY    41  37  86 NE7       30.11S
LOGAN          MOCLDY    42  40  92 CALM      30.12S
OGDEN          PTCLDY    41  38  89 S6        30.11S
SALT LAKE CITY PTCLDY    42  41  96 SE5       30.11S
TOOELE VALLEY  CLEAR     39  36  87 S8        30.12S WCI  34
WENDOVER       CLOUDY    42  36  79 CALM      30.11S
HEBER CITY     CLOUDY    36  34  93 CALM      30.12S
WEST JORDAN    CLEAR     38  38 100 SW7       30.12F WCI  33

$$

UTZ011>015-024>027-251300-

CENTRAL/NORTHEAST UTAH

CITY           SKY/WX    TMP DP  RH WIND       PRES   REMARKS
PROVO AIRPORT  CLEAR     39  38  96 SE3       30.14S
MOAB/CANYONLAN CLEAR     40  30  67 CALM      30.05R
DELTA          CLEAR     34  32  93 CALM      30.11F
PRICE          CLEAR     32  29  88 N6        30.07S WCI  26
RICHFIELD      CLEAR     30  30 100 CALM      30.15
ROOSEVELT      CLEAR     34  32  93 SW5       30.13S WCI  30
VERNAL         CLOUDY    37  34  89 NW5       30.10S WCI  33

$$

UTZ013>016-019>022-027-251300-

SOUTHERN UTAH

CITY           SKY/WX    TMP DP  RH WIND       PRES   REMARKS
BRYCE CANYON   CLEAR     22  19  89 CALM      30.12S
CEDAR CITY     CLEAR     30  29  96 NE3       30.08S
MILFORD        CLEAR     30  29  96 SW3       30.10S
ST GEORGE      MOSUNNY   48  29  47 W3        30.02S
HANKSVILLE     CLEAR     36  28  75 CALM      30.09S
KANAB          CLEAR     37  27  65 NE6       30.09S WCI  33
BLANDING         N/A     38  23  54 CALM      30.12S

$$

REGIONAL REPORTS     COLORADO/ARIZONA

CITY           SKY/WX    TMP DP  RH WIND       PRES   REMARKS
CRAIG, CO      CLOUDY    30  28  92 CALM      30.12S
GRAND JUNCTION CLEAR     35  30  82 CALM      30.07R
RIFLE, CO      CLEAR     33  30  88 CALM      30.10R
MONTROSE, CO   CLEAR     32  27  81 SE5       30.11R WCI  27
CORTEZ, CO     CLEAR     26  23  88 NE3       30.06S
PAGE, AZ       CLEAR     47  28  47 CALM      30.02S
GRAND CANYON   PTCLDY    23  13  65 CALM      30.07F
KINGMAN, AZ    CLEAR     45  26  47 E7        29.97F
FLAGSTAFF, AZ  PTCLDY    25  12  58 CALM      30.06S

$$

REGIONAL REPORTS    NEVADA/IDAHO/WYOMING

CITY           SKY/WX    TMP DP  RH WIND       PRES   REMARKS
LAS VEGAS, NV  PTCLDY    57  26  30 S7        29.97S
ELY, NY        CLEAR     25  23  92 S9        30.14S WCI  15
ELKO, NV       CLOUDY    37  31  78 CALM      30.13R
POCATELLO, ID  CLEAR     39  35  86 E5        30.11S
BURLEY, ID     PTCLDY    37  30  75 S3        30.09S
FORT BRIDGER,  CLOUDY    35  35 100 W8        30.15R WCI  28
EVANSTON, WY   FOG       33  33 100 SW6       30.13S VSB 1/2 WCI  28
ROCK SPRINGS,  CLOUDY    35  33  92 CALM      30.11R

$$




USA.gov is the U.S. government's official web portal to all federal, state and local government web resources and services.